{"data":{"norad_id":58480,"epoch":"2026-09-19T17:05:34.455840Z","epoch_age_seconds":214814,"freshness":"STALE","line1":"1 58480U 23186H   26262.71220435 -.00000093  00000+0  61516-5 0  9993","line2":"2 58480  43.0044  47.5461 0000978 275.4852  84.5888 15.27576163155573","mean_motion":15.27576163,"eccentricity":9.78e-5,"inclination_deg":43.0044,"raan_deg":47.5461,"arg_perigee_deg":275.4852,"mean_anomaly_deg":84.5888,"bstar":6.1516e-6,"rev_number":15557,"period_min":94.266985494981,"perigee_km":482.3895602982,"apogee_km":483.73161054591,"semimajor_km":6861.1975854221,"source":"CELESTRAK","updated_at":"2026-09-21T09:00:33.881254Z"}}